FALCON 9 R/B, 42819

Orbit data source: Space-Track

FALCON 9 R/B, 42819 is space debris in HEO originally from a launch on Wed, 05 Jul 2017 UTC launched from the Air Force Eastern Test Range (AFETR). Debris objects in space refer to the collection of defunct objects orbiting the Earth. Examples of debris include non-operational satellites, rocket bodies, and fragments generated from explosions, collisions, or faulty payload assembly.

Loading next visibility...
Identifier
42819, 2017-041B
Orbit
HEO
Country
Flag of USUS
Related business
Manufacturer
SpaceX
Mission
Spacecraft
Bus & Motor
F9ST2, Unknown motor
Mass
~4,000 kg wet, ~4,000 kg dry
Launch date (UTC)
2017-07-05 (9 years ago)
Launch vehicle
Unknown
Launch site
Air Force Eastern Test Range (AFETR)
Object type
Payload
Rocket body
Debris
Shape & HBR
Cyl, 7.8 m
Radar Cross Section
39.980 m², Large (>1 m²)

Expand to show TLE details & history
Last TLE update: 2 days ago

TLE from 2 days ago
0 FALCON 9 R/B
1 42819U 17041B   26171.10421689  .00027699 -93704-6  25432-2 0  9996
2 42819  25.0944 177.8402 7469481  80.8145 349.2761  2.07229170 63443
Epoch: 2026-06-20T02:30Z
TLE epoch observation values (Epoch: 2026-06-20T02:30:04.339Z)
Latitude
-0.00007°
Longitude
-128.04166°
Altitude
3,858.202 km
Speed
7.908 km/s
True Right ascension
11h 51m 12s
True Declination
0° 00' 00"
Sunlit
Object was in daylight at epoch
Visualization orbit readout
Latitude
Unknown
Longitude
Unknown
Altitude
Unknown
Speed
Unknown
Apparent Right ascension
Unknown
Apparent Declination
Unknown
Sunlit
N/A
Visualization observer readout
Local Sidereal Time
23:19:49
Azimuth
Unknown
Elevation
Unknown
Doppler factor
Unknown
Orbital elements
Apogee altitude
39,028.417 km
Perigee altitude
199.17 km
Semi-major axis
25,991.931 km
Eccentricity
0.74695
Inclination
25.0944°
RAAN
177.8402°
Arg. of periapsis
80.8145°
True anomaly
279.53988°
Mean anomaly
349.2761°
Eccentric anomaly
324.30585°
Mean motion
0.51795 °/min
Orbital period
695.05 mins
BSTAR
0.0025432
Loading maneuver chart data...
Computing Atmospheric mass density...
Loading historical data...
Loading historical data...
Loading historical data...
Loading historical data...
Loading historical data...
Loading historical data...
Loading historical data...
Other satellites on launch #41 in the year 2017 (2017-07-05 UTC)

Documentation

Showing up to 5 results
|